Regional Weather Roundup
Issued by NWS

Home | Current Version | Previous Version | Graphics & Text | Print | Product List | Glossary On
Versions: 1 2 3 4 5 6 7 8 9 10 11 12 13 14 15 16 17 18 19 20 21 22 23 24 25 26 27 28 29 30 31 32 33 34 35 36 37 38 39 40 41 42 43 44 45 46 47 48 49 50
000
ASUS45 KABQ 011701
RWRNM
NEW MEXICO REGIONAL WEATHER ROUNDUP
NATIONAL WEATHER SERVICE ALBUQUERQUE NM
1100 AM MDT SAT OCT 01 2016

NOTE: "FAIR" MEANS FEW OR NO CLOUDS BELOW 12,000 FEET AGL WITH NO
       SIGNIFICANT WEATHER OR OBSTRUCTIONS TO VISION.

      THIS PRODUCT IS RELEASED AS TWO VERSIONS.  ONE VERSION NEAR
      THE TOP OF THE HOUR CONTAINING PRELIMINARY DATA FROM ALBUQUERQUE
      AND OTHER STATIONS.  A FINAL VERSION WITH ADDITIONAL DATA IS
      ISSUED ABOUT 10 MINUTES AFTER THE HOUR.

NMZ501-503-504-510>518-011800-
NORTHWEST PLATEAU/NORTHCENTRAL MOUNTAINS

CITY           SKY/WX    TMP DP  RH WIND       PRES   REMARKS
FARMINGTON     FAIR      61  47  59 SE7       30.25S
LOS ALAMOS     FAIR      61  41  48 E5        30.32F
SANTA FE       FAIR      68  43  40 N3        30.26F
TAOS           FAIR      63  39  42 CALM      30.31F
ANGEL FIRE     FAIR      60  33  35 W13G22    30.35F

$$
NMZ402-403-502-505>509-011800-
WESTCENTRAL MOUNTAINS/SOUTHWEST MOUNTAINS

CITY           SKY/WX    TMP DP  RH WIND       PRES   REMARKS
GALLUP         FAIR      63  47  55 VRB3      30.31S
SILVER CITY    FAIR      72  49  44 NW12G18   30.27S

$$
NMZ407-409-411-412-011800-
SOUTHERN DESERTS

CITY           SKY/WX    TMP DP  RH WIND       PRES   REMARKS
DEMING         FAIR      75  53  46 W8        30.20F
LAS CRUCES     FAIR      71  60  67 SW7       30.21F
HOLLOMAN AFB   FAIR      72  62  71 SW7       30.17S
ALAMOGORDO     FAIR      70  61  73 SW8       30.20S
T OR C         FAIR      71  52  50 CALM      30.21S

$$
NMZ519>523-011800-
CENTRAL VALLEYS/CENTRAL HIGHLANDS

CITY           SKY/WX    TMP DP  RH WIND       PRES   REMARKS
ALBUQUERQUE    FAIR      68  52  56 S3        30.25S
DOUBLE EAGLE   MOSUNNY   68  52  56 VRB5      30.27F
CLINES CORNERS FAIR      67  38  34 NW13      30.30S
BELEN          FAIR      67  50  52 CALM      30.24F
SOCORRO        FAIR      70  52  51 NE6       30.22F

$$
NMZ524>526-539-540-011800-
SOUTHCENTRAL MOUNTAINS

CITY           SKY/WX    TMP DP  RH WIND       PRES   REMARKS
RUIDOSO        FAIR      68  50  52 W8        30.31S

$$
NMZ527>531-011800-
NORTHEAST HIGHLANDS/NORTHEAST PLAINS

CITY           SKY/WX    TMP DP  RH WIND       PRES   REMARKS
LAS VEGAS      FAIR      69  34  27 CALM      30.25F
RATON          FAIR      68  44  42 VRB5      30.21F
CLAYTON        FAIR      74  49  41 VRB6      30.14F

$$
NMZ532>537-011800-
EASTCENTRAL PLAINS

CITY           SKY/WX    TMP DP  RH WIND       PRES   REMARKS
TUCUMCARI      FAIR      77  50  38 NW7       30.09F
CANNON AFB     FAIR      71  55  57 VRB1      30.13S
CLOVIS AIRPORT FAIR      70  54  56 SW8       30.13F

$$
NMZ028-029-538-011800-
SOUTHEAST PLAINS

CITY           SKY/WX    TMP DP  RH WIND       PRES   REMARKS
ROSWELL        FAIR      74  55  51 SE6       30.13F
ARTESIA        FAIR      72  61  68 VRB3      30.13F
CARLSBAD       FAIR      73  61  65 VRB5      30.11F
HOBBS          SUNNY     73  59  60 SE5       30.15F


$$




USA.gov is the U.S. government's official web portal to all federal, state and local government web resources and services.